| time (UTC) | temp F | wind direction | speed MPH | gust MPH | rain 1hr in | rain 24hr in | rain mn in | humidity % | barometer mb |
| 20260902170121 | 74 | 14 | 1.0 | 6.0 | 0.00 | 0.00 | 0.00 | 58 | 1014.8 |
| 20260902164600 | 73 | 281 | 2.0 | 5.0 | 0.00 | 0.00 | 0.00 | 63 | 1014.8 |
| 20260902163012 | 72 | 308 | 0.0 | 5.0 | 0.00 | 0.00 | 0.00 | 67 | 1014.6 |
| 20260902161615 | 71 | 301 | 1.0 | 4.0 | 0.00 | 0.00 | 0.00 | 69 | 1014.5 |
| 20260902160031 | 70 | 271 | 2.0 | 7.0 | 0.00 | 0.00 | 0.00 | 71 | 1014.6 |
| 20260902154515 | 70 | 231 | 0.0 | 6.0 | 0.00 | 0.00 | 0.00 | 70 | 1014.6 |
| 20260902153119 | 71 | 183 | 0.0 | 1.0 | 0.00 | 0.00 | 0.00 | 69 | 1014.5 |
| 20260902151521 | 68 | 179 | 0.0 | 3.0 | 0.00 | 0.00 | 0.00 | 73 | 1014.4 |
| 20260902150117 | 66 | 132 | 1.0 | 3.0 | 0.00 | 0.00 | 0.00 | 75 | 1014.6 |
| 20260902144627 | 65 | 127 | 1.0 | 3.0 | 0.00 | 0.00 | 0.00 | 76 | 1014.5 |
| 20260902143009 | 64 | 129 | 0.0 | 3.0 | 0.00 | 0.00 | 0.00 | 80 | 1014.5 |
| 20260902141612 | 63 | 123 | 0.0 | 1.0 | 0.00 | 0.00 | 0.00 | 84 | 1014.4 |
| 20260902140048 | 61 | 122 | 0.0 | 0.0 | 0.00 | 0.00 | 0.00 | 91 | 1014.2 |
| 20260902134529 | 59 | 123 | 0.0 | 0.0 | 0.00 | 0.00 | 0.00 | 91 | 1014.2 |
| 20260902133117 | 59 | 123 | 0.0 | 0.0 | 0.00 | 0.00 | 0.00 | 90 | 1014.2 |
| 20260902131528 | 59 | 122 | 0.0 | 0.0 | 0.00 | 0.00 | 0.00 | 89 | 1014.1 |
| 20260902130120 | 59 | 123 | 0.0 | 0.0 | 0.00 | 0.00 | 0.00 | 90 | 1014.1 |
| 20260902124558 | 59 | 123 | 0.0 | 0.0 | 0.00 | 0.00 | 0.00 | 91 | 1014.2 |
| 20260902123006 | 59 | 122 | 0.0 | 0.0 | 0.00 | 0.00 | 0.00 | 90 | 1014.1 |
| 20260902120033 | 59 | 122 | 0.0 | 0.0 | 0.00 | 0.00 | 0.00 | 90 | 1014.1 |
| 20260902114535 | 60 | 123 | 0.0 | 0.0 | 0.00 | 0.00 | 0.00 | 89 | 1014.2 |
| 20260902113059 | 60 | 123 | 0.0 | 0.0 | 0.00 | 0.00 | 0.00 | 89 | 1014.2 |
| 20260902111520 | 61 | 123 | 0.0 | 0.0 | 0.00 | 0.00 | 0.00 | 88 | 1014.3 |
| 20260902110114 | 62 | 122 | 0.0 | 0.0 | 0.00 | 0.00 | 0.00 | 88 | 1014.4 |
| 20260902104621 | 62 | 123 | 0.0 | 0.0 | 0.00 | 0.00 | 0.00 | 87 | 1014.5 |
| 20260902103031 | 63 | 122 | 0.0 | 1.0 | 0.00 | 0.00 | 0.00 | 87 | 1014.6 |
| 20260902101618 | 63 | 123 | 0.0 | 1.0 | 0.00 | 0.00 | 0.00 | 87 | 1014.6 |
| 20260902100050 | 62 | 123 | 0.0 | 0.0 | 0.00 | 0.00 | 0.00 | 87 | 1014.7 |
| 20260902094518 | 62 | 123 | 0.0 | 0.0 | 0.00 | 0.00 | 0.00 | 86 | 1014.6 |
| 20260902093112 | 63 | 123 | 0.0 | 0.0 | 0.00 | 0.00 | 0.00 | 85 | 1014.6 |
| 20260902091523 | 63 | 123 | 0.0 | 0.0 | 0.00 | 0.00 | 0.00 | 85 | 1014.5 |
| 20260902090129 | 63 | 122 | 0.0 | 0.0 | 0.00 | 0.00 | 0.00 | 84 | 1014.5 |
| 20260902084616 | 64 | 122 | 0.0 | 1.0 | 0.00 | 0.00 | 0.00 | 84 | 1014.6 |
| 20260902083035 | 64 | 160 | 0.0 | 1.0 | 0.00 | 0.00 | 0.00 | 84 | 1014.7 |
| 20260902081624 | 64 | 149 | 0.0 | 3.0 | 0.00 | 0.00 | 0.00 | 82 | 1014.7 |
| 20260902080020 | 64 | 248 | 0.0 | 0.0 | 0.00 | 0.00 | 0.00 | 81 | 1014.5 |
| 20260902074614 | 65 | 248 | 0.0 | 0.0 | 0.00 | 0.00 | 0.00 | 80 | 1014.4 |
| 20260902073032 | 66 | 248 | 0.0 | 3.0 | 0.00 | 0.00 | 0.00 | 79 | 1014.2 |
| 20260902071626 | 66 | 282 | 0.0 | 3.0 | 0.00 | 0.00 | 0.00 | 78 | 1014.1 |
| 20260902070052 | 67 | 319 | 0.0 | 2.0 | 0.00 | 0.00 | 0.00 | 76 | 1013.9 |
| 20260902064532 | 68 | 82 | 0.0 | 3.0 | 0.00 | 0.00 | 0.00 | 74 | 1013.9 |
| 20260902063130 | 67 | 308 | 0.0 | 3.0 | 0.00 | 0.00 | 0.00 | 76 | 1014.0 |
| 20260902061554 | 68 | 288 | 1.0 | 3.0 | 0.00 | 0.00 | 0.00 | 73 | 1013.9 |
| 20260902060034 | 67 | 304 | 1.0 | 4.0 | 0.00 | 0.00 | 0.00 | 73 | 1013.7 |
| 20260902054525 | 67 | 301 | 0.0 | 0.0 | 0.00 | 0.00 | 0.00 | 73 | 1013.7 |
| 20260902053106 | 67 | 301 | 0.0 | 0.0 | 0.00 | 0.00 | 0.00 | 73 | 1013.7 |
| 20260902051525 | 68 | 301 | 0.0 | 1.0 | 0.00 | 0.00 | 0.00 | 71 | 1013.7 |
| 20260902050110 | 69 | 302 | 2.0 | 4.0 | 0.00 | 0.00 | 0.00 | 70 | 1013.5 |
| 20260902044515 | 70 | 294 | 2.0 | 8.0 | 0.00 | 0.00 | 0.00 | 68 | 1013.4 |
| 20260902043116 | 71 | 309 | 4.0 | 7.0 | 0.00 | 0.00 | 0.00 | 67 | 1013.2 |
| 20260902041521 | 71 | 264 | 0.0 | 6.0 | 0.00 | 0.00 | 0.00 | 65 | 1013.0 |
| 20260902040125 | 71 | 293 | 3.0 | 4.0 | 0.00 | 0.00 | 0.00 | 65 | 1012.7 |
| 20260902034609 | 72 | 302 | 0.0 | 2.0 | 0.00 | 0.00 | 0.00 | 64 | 1012.4 |
| 20260902033018 | 72 | 309 | 1.0 | 5.0 | 0.00 | 0.00 | 0.00 | 63 | 1012.1 |
| 20260902031616 | 73 | 342 | 2.0 | 5.0 | 0.00 | 0.00 | 0.00 | 61 | 1011.8 |
| 20260902030016 | 74 | 226 | 3.0 | 9.0 | 0.00 | 0.00 | 0.00 | 57 | 1011.4 |
| 20260902024615 | 75 | 299 | 4.0 | 12.0 | 0.00 | 0.00 | 0.00 | 54 | 1011.3 |
| 20260902023012 | 76 | 263 | 3.0 | 10.0 | 0.00 | 0.00 | 0.00 | 45 | 1011.2 |
| 20260902021606 | 77 | 315 | 4.0 | 10.0 | 0.00 | 0.00 | 0.00 | 37 | 1011.3 |
| 20260902020016 | 78 | 314 | 4.0 | 9.0 | 0.00 | 0.00 | 0.00 | 36 | 1011.4 |
| 20260902014558 | 79 | 307 | 3.0 | 12.0 | 0.00 | 0.00 | 0.00 | 39 | 1011.3 |
| 20260902013022 | 80 | 309 | 3.0 | 11.0 | 0.00 | 0.00 | 0.00 | 39 | 1011.3 |
| 20260902011611 | 81 | 308 | 4.0 | 14.0 | 0.00 | 0.00 | 0.00 | 38 | 1011.3 |
| 20260902010034 | 83 | 277 | 3.0 | 15.0 | 0.00 | 0.00 | 0.00 | 36 | 1011.3 |
| 20260902004622 | 84 | 266 | 6.0 | 18.0 | 0.00 | 0.00 | 0.00 | 34 | 1011.4 |
| 20260902003022 | 86 | 300 | 4.0 | 10.0 | 0.00 | 0.00 | 0.00 | 31 | 1011.4 |
| 20260902001616 | 86 | 300 | 4.0 | 13.0 | 0.00 | 0.00 | 0.00 | 28 | 1011.4 |
| 20260902000046 | 86 | 221 | 5.0 | 13.0 | 0.00 | 0.00 | 0.00 | 28 | 1011.5 |
| 20260901234639 | 87 | 243 | 6.0 | 16.0 | 0.00 | 0.00 | 0.00 | 25 | 1011.5 |
| 20260901233059 | 86 | 290 | 6.0 | 15.0 | 0.00 | 0.00 | 0.00 | 25 | 1011.5 |
| 20260901231513 | 87 | 245 | 7.0 | 16.0 | 0.00 | 0.00 | 0.00 | 30 | 1011.4 |
| 20260901230126 | 88 | 245 | 4.0 | 16.0 | 0.00 | 0.00 | 0.00 | 29 | 1011.4 |
| 20260901224541 | 88 | 216 | 6.0 | 13.0 | 0.00 | 0.00 | 0.00 | 29 | 1011.6 |
| 20260901223116 | 88 | 242 | 5.0 | 14.0 | 0.00 | 0.00 | 0.00 | 30 | 1011.5 |
| 20260901221528 | 89 | 249 | 4.0 | 14.0 | 0.00 | 0.00 | 0.00 | 30 | 1011.7 |
| 20260901220122 | 89 | 238 | 7.0 | 15.0 | 0.00 | 0.00 | 0.00 | 31 | 1011.8 |
| 20260901214529 | 90 | 359 | 3.0 | 13.0 | 0.00 | 0.00 | 0.00 | 29 | 1012.0 |
| 20260901213113 | 90 | 243 | 5.0 | 15.0 | 0.00 | 0.00 | 0.00 | 27 | 1012.2 |
| 20260901211530 | 90 | 224 | 4.0 | 14.0 | 0.00 | 0.00 | 0.00 | 24 | 1012.1 |
| 20260901210101 | 91 | 298 | 6.0 | 13.0 | 0.00 | 0.00 | 0.00 | 23 | 1012.2 |
| 20260901204524 | 90 | 336 | 4.0 | 15.0 | 0.00 | 0.00 | 0.00 | 23 | 1012.3 |
| 20260901203103 | 90 | 269 | 4.0 | 10.0 | 0.00 | 0.00 | 0.00 | 20 | 1012.4 |
| 20260901201515 | 89 | 311 | 4.0 | 11.0 | 0.00 | 0.00 | 0.00 | 27 | 1012.6 |
| 20260901200107 | 88 | 226 | 5.0 | 11.0 | 0.00 | 0.00 | 0.00 | 30 | 1012.9 |
| 20260901194526 | 86 | 295 | 3.0 | 10.0 | 0.00 | 0.00 | 0.00 | 33 | 1013.1 |
| 20260901193117 | 87 | 276 | 4.0 | 9.0 | 0.00 | 0.00 | 0.00 | 37 | 1013.3 |
| 20260901191527 | 86 | 259 | 1.0 | 4.0 | 0.00 | 0.00 | 0.00 | 41 | 1013.6 |
| 20260901190119 | 84 | 54 | 2.0 | 8.0 | 0.00 | 0.00 | 0.00 | 42 | 1013.7 |
| 20260901184543 | 83 | 252 | 3.0 | 7.0 | 0.00 | 0.00 | 0.00 | 41 | 1013.9 |
| 20260901183029 | 81 | 274 | 3.0 | 6.0 | 0.00 | 0.00 | 0.00 | 46 | 1013.9 |
| 20260901181625 | 81 | 266 | 3.0 | 8.0 | 0.00 | 0.00 | 0.00 | 47 | 1013.9 |
| 20260901180045 | 82 | 359 | 1.0 | 4.0 | 0.00 | 0.00 | 0.00 | 53 | 1014.0 |
| 20260901174502 | 80 | 267 | 1.0 | 4.0 | 0.00 | 0.00 | 0.00 | 57 | 1014.1 |
| 20260901173119 | 78 | 321 | 1.0 | 4.0 | 0.00 | 0.00 | 0.00 | 59 | 1014.0 |
| 20260901171542 | 76 | 286 | 1.0 | 5.0 | 0.00 | 0.00 | 0.00 | 63 | 1014.0 |